Cavalier, ND

6:17 PM CST on January 23, 2017 (GMT -0600)
Cavalier

Weather History for K2C8 - February, 2014

Change the Weather History Date:

Wednesday, February 19, 2014

  Actual Average (KGAF) Record (KGAF)
Temperature  
Mean Temperature 14 °F -  
Max Temperature 26 °F 22 °F 45 °F (1982)
Min Temperature 3 °F 3 °F -45 °F (1966)
Degree Days  
Heating Degree Days 50    
Moisture  
Dew Point 14 °F    
Average Humidity 85    
Maximum Humidity 100    
Minimum Humidity 69    
Precipitation  
Precipitation 0.11 in - - ()
Sea Level Pressure  
Sea Level Pressure 29.61 in    
Wind  
Wind Speed 9 mph (NNW)    
Max Wind Speed 17 mph    
Max Gust Speed 22 mph    
Visibility 9 miles    
Events Snow    
Averages and records for this station are not official NWS values.
T = Trace of Precipitation, MM = Missing Value Source: NWS Daily Summary

Daily Weather History Graph

Daily Weather History Graph

Search for Another Location

Airport or City:

Trip Planner

Search our weather history database for the weather conditions in past years. The results will help you decide how hot, cold, wet, or windy it might be!

Date:

Astronomy

Feb. 19, 2014 Rise Set
Actual Time 7:31 AM CST 5:58 PM CST
Civil Twilight 6:59 AM CST 6:30 PM CST
Nautical Twilight 6:22 AM CST 7:07 PM CST
Astronomical Twilight 5:45 AM CST 7:43 PM CST
Moon 11:21 PM CST (2/19) 9:12 AM CST (2/19)
Length of Visible Light 11h 31m
Length of Day
10h 26m
Waning Gibbous, 79% of the Moon is Illuminated
Feb 19
Waning Gibbous
Feb 22
Last Quarter
Mar 1
New
Mar 8
First Quarter
Mar 16
Full

Hourly Weather History & Observations

Time (CST) Temp. Windchill Dew Point Humidity Pressure Visibility Wind Dir Wind Speed Gust Speed Precip Events Conditions
12:15 AM 26.6 °F 13.8 °F 17.6 °F 69% 29.65 in 10.0 mi West 17.3 mph 21.9 mph N/A   Clear
12:35 AM 26.6 °F 14.7 °F 17.6 °F 69% 29.65 in 10.0 mi WNW 15.0 mph 20.7 mph N/A   Clear
12:55 AM 26.6 °F 15.2 °F 17.6 °F 69% 29.65 in 10.0 mi West 13.8 mph 19.6 mph N/A   Clear
1:15 AM 24.8 °F 14.6 °F 17.6 °F 74% 29.65 in 10.0 mi WNW 10.4 mph - N/A   Clear
1:35 AM 24.8 °F 14.0 °F 15.8 °F 69% 29.66 in 10.0 mi West 11.5 mph - N/A   Clear
1:55 AM 23.0 °F 12.4 °F 15.8 °F 74% 29.66 in 10.0 mi West 10.4 mph - N/A   Clear
2:15 AM 19.4 °F 7.9 °F 14.0 °F 80% 29.65 in 10.0 mi West 10.4 mph - N/A   Clear
2:35 AM 19.4 °F 8.6 °F 14.0 °F 80% 29.66 in 10.0 mi WSW 9.2 mph - N/A   Clear
2:55 AM 21.2 °F 10.9 °F 15.8 °F 80% 29.65 in 10.0 mi WSW 9.2 mph - N/A   Clear
3:15 AM 19.4 °F 7.9 °F 14.0 °F 80% 29.65 in 10.0 mi West 10.4 mph - N/A   Clear
3:35 AM 19.4 °F 7.2 °F 14.0 °F 80% 29.65 in 10.0 mi West 11.5 mph - N/A   Clear
3:55 AM 19.4 °F 7.9 °F 14.0 °F 80% 29.64 in 10.0 mi West 10.4 mph - N/A   Clear
4:15 AM 19.4 °F 11.5 °F 14.0 °F 80% 29.64 in 10.0 mi SW 5.8 mph - N/A   Clear
4:35 AM 17.6 °F 8.2 °F 14.0 °F 86% 29.64 in 10.0 mi West 6.9 mph - N/A   Clear
4:55 AM 15.8 °F 10.2 °F 10.4 °F 79% 29.65 in 10.0 mi South 3.5 mph - N/A   Clear
5:15 AM 10.4 °F 2.2 °F 6.8 °F 85% 29.65 in 10.0 mi South 4.6 mph - N/A   Clear
5:35 AM 10.4 °F - 8.6 °F 92% 29.65 in 10.0 mi Calm Calm - N/A   Clear
5:55 AM 8.6 °F - 8.6 °F 100% 29.65 in 10.0 mi Calm Calm - N/A   Clear
6:15 AM 8.6 °F 2.0 °F 8.6 °F 100% 29.65 in 10.0 mi ESE 3.5 mph - N/A   Clear
6:35 AM 10.4 °F 2.2 °F 10.4 °F 100% 29.65 in 10.0 mi ENE 4.6 mph - N/A   Clear
6:55 AM 5.0 °F - 1.4 °F 85% 29.65 in 7.0 mi Calm Calm - N/A   Clear
7:15 AM 5.0 °F -4.1 °F 5.0 °F 100% 29.66 in 4.0 mi West 4.6 mph - N/A   Clear
7:35 AM 3.2 °F -6.2 °F 1.4 °F 92% 29.66 in 10.0 mi West 4.6 mph - N/A   Clear
7:55 AM 5.0 °F - 1.4 °F 85% 29.65 in 10.0 mi Calm Calm - N/A   Clear
8:15 AM 5.0 °F -5.6 °F 3.2 °F 92% 29.66 in 6.0 mi NNE 5.8 mph - N/A   Clear
8:35 AM 12.2 °F 4.3 °F 8.6 °F 85% 29.66 in 10.0 mi NW 4.6 mph - N/A   Clear
8:55 AM 10.4 °F 0.8 °F 8.6 °F 92% 29.66 in 10.0 mi West 5.8 mph - N/A   Clear
9:15 AM 12.2 °F 6.1 °F 8.6 °F 85% 29.66 in 10.0 mi WNW 3.5 mph - N/A   Clear
9:35 AM 14.0 °F - 10.4 °F 86% 29.66 in 10.0 mi Calm Calm - N/A   Clear
9:55 AM 17.6 °F - 12.2 °F 79% 29.66 in 10.0 mi Calm Calm - N/A   Clear
10:15 AM 19.4 °F 14.3 °F 14.0 °F 80% 29.66 in 10.0 mi North 3.5 mph - N/A   Clear
10:35 AM 21.2 °F - 15.8 °F 80% 29.66 in 10.0 mi Calm Calm - N/A   Clear
10:55 AM 23.0 °F 15.8 °F 15.8 °F 74% 29.65 in 10.0 mi ENE 5.8 mph - N/A   Clear
11:15 AM 23.0 °F 14.7 °F 15.8 °F 74% 29.65 in 10.0 mi North 6.9 mph - N/A   Clear
11:35 AM 19.4 °F 9.5 °F 15.8 °F 86% 29.65 in 10.0 mi North 8.1 mph - N/A   Clear
11:55 AM 19.4 °F 10.4 °F 15.8 °F 86% 29.65 in 10.0 mi North 6.9 mph - N/A   Clear
12:15 PM 19.4 °F 12.8 °F 15.8 °F 86% 29.64 in 9.0 mi North 4.6 mph - N/A   Partly Cloudy
12:35 PM 19.4 °F 11.5 °F 15.8 °F 86% 29.64 in 10.0 mi NNW 5.8 mph - N/A   Clear
12:55 PM 19.4 °F 10.4 °F 15.8 °F 86% 29.63 in 10.0 mi NE 6.9 mph - N/A   Partly Cloudy
1:15 PM 19.4 °F 10.4 °F 15.8 °F 86% 29.62 in 10.0 mi ENE 6.9 mph - N/A   Partly Cloudy
1:35 PM 19.4 °F 10.4 °F 15.8 °F 86% 29.62 in 10.0 mi ENE 6.9 mph - N/A   Partly Cloudy
1:55 PM 19.4 °F 7.9 °F 15.8 °F 86% 29.60 in 10.0 mi NE 10.4 mph - N/A   Partly Cloudy
2:15 PM 19.4 °F 7.9 °F 15.8 °F 86% 29.59 in 10.0 mi NE 10.4 mph - N/A   Partly Cloudy
2:35 PM 19.4 °F 7.9 °F 15.8 °F 86% 29.59 in 10.0 mi NE 10.4 mph - N/A   Partly Cloudy
2:55 PM 19.4 °F 8.6 °F 15.8 °F 86% 29.59 in 10.0 mi NE 9.2 mph - N/A   Clear
3:15 PM 21.2 °F 11.7 °F 15.8 °F 80% 29.59 in 10.0 mi NE 8.1 mph - N/A   Clear
3:35 PM 21.2 °F 12.6 °F 15.8 °F 80% 29.58 in 10.0 mi NE 6.9 mph - N/A   Clear
3:55 PM 21.2 °F 12.6 °F 17.6 °F 86% 29.57 in 10.0 mi NE 6.9 mph - N/A   Clear
4:15 PM 23.0 °F 15.8 °F 17.6 °F 80% 29.57 in 10.0 mi NE 5.8 mph - N/A   Clear
4:35 PM 23.0 °F 13.9 °F 17.6 °F 80% 29.57 in 10.0 mi North 8.1 mph - N/A   Partly Cloudy
4:55 PM 23.0 °F 13.9 °F 17.6 °F 80% 29.56 in 8.0 mi North 8.1 mph - N/A   Clear
5:15 PM 21.2 °F 13.6 °F 17.6 °F 86% 29.57 in 10.0 mi North 5.8 mph - N/A   Clear
5:35 PM 19.4 °F 11.5 °F 17.6 °F 93% 29.57 in 10.0 mi North 5.8 mph - N/A   Clear
5:55 PM 19.4 °F 10.4 °F 17.6 °F 93% 29.56 in 10.0 mi North 6.9 mph - N/A   Clear
6:15 PM 19.4 °F 9.5 °F 15.8 °F 86% 29.56 in 10.0 mi NNW 8.1 mph - N/A   Clear
6:35 PM 19.4 °F 9.5 °F 15.8 °F 86% 29.55 in 10.0 mi North 8.1 mph - N/A   Partly Cloudy
6:55 PM 19.4 °F 10.4 °F 15.8 °F 86% 29.55 in 10.0 mi North 6.9 mph - N/A   Partly Cloudy
7:15 PM 19.4 °F 7.9 °F 15.8 °F 86% 29.55 in 10.0 mi NNW 10.4 mph - N/A   Clear
7:35 PM 19.4 °F 7.2 °F 15.8 °F 86% 29.55 in 10.0 mi NNW 11.5 mph - N/A   Clear
7:55 PM 19.4 °F 7.2 °F 15.8 °F 86% 29.55 in 10.0 mi North 11.5 mph - N/A   Clear
8:15 PM 17.6 °F 4.3 °F 14.0 °F 86% 29.54 in 10.0 mi NNW 12.7 mph - N/A   Clear
8:35 PM 17.6 °F 4.3 °F 14.0 °F 86% 29.54 in 10.0 mi NNW 12.7 mph - N/A   Clear
8:55 PM 17.6 °F 3.7 °F 14.0 °F 86% 29.54 in 10.0 mi NNW 13.8 mph - N/A   Partly Cloudy
9:15 PM 17.6 °F 4.3 °F 14.0 °F 86% 29.53 in 10.0 mi NNW 12.7 mph - N/A   Partly Cloudy
9:35 PM 17.6 °F 3.2 °F 14.0 °F 86% 29.54 in 6.0 mi NNW 15.0 mph - N/A Snow Light Snow
10:35 PM 15.8 °F 2.1 °F 14.0 °F 93% 29.52 in 1.0 mi NNW 12.7 mph - 0.04 in Snow Light Snow
10:55 PM 15.8 °F 0.9 °F 14.0 °F 93% 29.52 in 1.2 mi NNW 15.0 mph - 0.06 in Snow Light Snow
11:15 PM 15.8 °F 1.4 °F 14.0 °F 93% 29.52 in 1.8 mi NNW 13.8 mph - 0.01 in Snow Light Snow
11:35 PM 15.8 °F 0.9 °F 14.0 °F 93% 29.52 in 2.0 mi NNW 15.0 mph - 0.02 in Snow Light Snow
11:55 PM 15.8 °F 1.4 °F 14.0 °F 93% 29.52 in 1.8 mi NW 13.8 mph - 0.05 in Snow Light Snow